This is the latest recevied weather packets stored in our database for station/object KC0UFP. If no packets are shown the sender has not sent any weather packets the latest 10 day(s).
| Time | Temp. | Humidity | Pressure | Rain* | Wind** | Luminosity | Snow |
|---|---|---|---|---|---|---|---|
| 1777686399 | 15° C | 47% | 1017.4 hPa | 0 mm | - | 0 W/m² | - |
| 1777686096 | 15° C | 46% | 1017.2 hPa | 0 mm | - | 0 W/m² | - |
| 1777685791 | 15° C | 47% | 1017.1 hPa | 0 mm | - | 0 W/m² | - |
| 1777685487 | 15° C | 46% | 1016.8 hPa | 0 mm | - | 0 W/m² | - |
| 1777685185 | 15° C | 46% | 1016.6 hPa | 0 mm | - | 0 W/m² | - |
| 1777684883 | 15° C | 45% | 1016.6 hPa | 0 mm | - | 0 W/m² | - |
| 1777684579 | 15° C | 45% | 1016.4 hPa | 0 mm | - | 0 W/m² | - |
| 1777684275 | 15° C | 45% | 1016.7 hPa | 0 mm | - | 0 W/m² | - |
| 1777683973 | 15.56° C | 44% | 1016.4 hPa | 0 mm | - | 0 W/m² | - |
| 1777683669 | 15.56° C | 43% | 1016.4 hPa | 0 mm | - | 0 W/m² | - |
| 1777683367 | 15.56° C | 41% | 1016.3 hPa | 0 mm | - | 1 W/m² | - |
| 1777683064 | 15.56° C | 40% | 1016.5 hPa | 0 mm | - | 2 W/m² | - |
| 1777682760 | 16.11° C | 40% | 1016.2 hPa | 0 mm | - | 4 W/m² | - |
| 1777682456 | 16.11° C | 42% | 1016 hPa | 0 mm | - | 6 W/m² | - |
| 1777682155 | 16.11° C | 39% | 1015.9 hPa | 0 mm | - | 11 W/m² | - |
| 1777681851 | 16.11° C | 39% | 1015.8 hPa | 0 mm | - | 16 W/m² | - |
| 1777681547 | 16.11° C | 40% | 1015.9 hPa | 0 mm | - | 22 W/m² | - |
| 1777681245 | 16.11° C | 40% | 1015.6 hPa | 0 mm | - | 29 W/m² | - |
| 1777680943 | 16.67° C | 39% | 1015.6 hPa | 0 mm | - | 37 W/m² | - |
| 1777680639 | 16.67° C | 39% | 1015.7 hPa | 0 mm | - | 47 W/m² | - |
| 1777680338 | 16.67° C | 37% | 1015.6 hPa | 0 mm | - | 53 W/m² | - |
| 1777680035 | 16.67° C | 38% | 1015.6 hPa | 0 mm | - | 62 W/m² | - |
| 1777679730 | 16.67° C | 38% | 1015.4 hPa | 0 mm | - | 79 W/m² | - |
| 1777679426 | 16.67° C | 38% | 1015.5 hPa | 0 mm | - | 84 W/m² | - |
| 1777679122 | 16.67° C | 36% | 1015.4 hPa | 0 mm | - | 91 W/m² | - |
* Rain latest hour (hover to see other rain measurements)
** Current wind speed in m/s (hover to see current wind gust speed)